Lid_Strength_Index
-0 -0 -1 -0 -1 -1 -1 -0 0 -1 -1 -0 -1 -1 -0 -1 -1 -1 -1 -1 -1 -1 -1 -1 -1 -1 -1 -2 -2 -2 -2 -2 -2 -1 -1 -1 -1 -1 -1 -1 -1 -1 -1
-0 -1 -0 -0 -1 -0 -1 -0 -1 -1 -1 -0 -0 -0 -0 -1 -0 -1 -1 -1 -1 -1 -2 -2 -2 -2 -2 -2 -2 -2 -2 -2 -2 -1 -1 -2 -2 -2 -2 -2 -1 -1 -1
-1 -1 -1 -0 -1 -1 -0 -1 -1 -0 -1 -0 -0 -0 0 -0 0 0 -0 -0 -1 -1 -2 -2 -2 -2 -2 -2 -1 -2 -2 -2 -2 -1 -1 -1 -2 -2 -2 -2 -2 -2 -1
-1 -1 -1 -1 -1 -1 -0 -0 -0 -0 0 -0 -0 -0 -0 -0 -0 -0 0 0 0 -0 -1 -2 -1 -2 -2 -2 -2 -2 -2 -2 -1 -2 -2 -2 -1 -1 -2 -1 -2 -2 -2
-1 -1 -0 -1 -1 -1 -0 -0 -0 0 0 0 0 -0 -0 -0 -0 -0 -0 -0 -0 -1 -0 -1 -1 -1 -1 -2 -2 -2 -2 -2 -2 -2 -2 -2 -2 -2 -1 -1 -1 -2 -2
-1 -1 -1 -1 -1 -0 0 0 -0 -0 0 0 1 1 -0 -0 -1 -0 -0 -0 -0 -1 -1 -0 -0 0 -0 -1 -2 -2 -1 -2 -2 -2 -2 -1 -1 -1 -1 -1 -2 -1 -2
-1 -1 -1 -1 -1 -0 0 -0 -0 1 1 0 1 1 1 0 0 0 -1 -0 -1 -0 -0 -1 -0 -0 -0 -1 -1 -2 -2 -2 -2 -2 -1 -1 -1 -1 -1 -1 -1 -1 -2
-1 -1 -0 -1 -0 -0 -0 -0 0 1 1 1 2 2 4 2 1 1 0 0 0 0 0 -0 -0 -1 -1 -1 -1 -2 -2 -2 -2 -2 -2 -1 -1 -1 -1 -1 -1 -0 -1
-0 -1 -1 -1 -1 -1 -0 -0 -0 1 2 1 1 2 4 5 3 1 0 0 0 0 -0 -0 -0 -0 -1 -1 -1 -1 -1 -1 -1 -1 -1 -1 -1 -1 -1 -1 -1 -0 -1
-1 -1 -1 -1 -1 -1 -1 -0 -0 0 0 2 1 1 1 2 4 4 1 1 -0 0 0 -0 -1 -0 -1 -1 -2 -1 -1 -1 -1 -0 -1 -1 -1 -1 -1 -1 -1 -1 -1
-0 -1 -1 -1 -0 -0 -1 -1 -0 0 0 1 1 1 1 2 2 3 4 3 1 0 -0 -0 0 -1 -1 -1 -1 -1 -1 -0 -0 1 -0 -1 0 -0 -1 -1 -1 -1 -1
-0 -0 -0 -1 -0 -0 -0 -1 -1 -0 -0 0 0 1 2 3 2 2 4 3 3 1 1 -0 -1 -1 -1 -1 -1 -1 -1 -0 0 1 0 0 1 1 -1 -1 -1 -1 -1
0 -0 -0 -0 -0 -1 -1 -1 -1 -1 -0 0 0 1 1 1 1 1 2 3 3 2 2 -0 -1 -1 -1 -1 -1 -1 -1 1 1 2 1 1 2 2 1 -1 -1 -1 -1
0 -0 -0 -0 -0 -1 -1 -1 -0 -0 -0 0 0 0 0 0 0 2 3 3 3 3 2 1 -0 -1 -1 -1 -1 -1 -1 2 1 2 2 2 2 2 3 1 -0 -1 -0
0 -0 -0 -1 -1 -1 -1 -1 -0 -0 -0 -0 0 -0 0 0 -0 -0 0 1 2 5 4 2 2 -1 -1 -1 -1 -1 -1 1 1 2 2 3 3 3 3 3 -0 0 1
-0 0 -0 -0 -0 -0 -1 -0 -0 -0 -0 0 -0 0 0 -0 -0 -0 0 0 1 2 4 1 1 -0 -1 -1 -1 -1 -1 -0 1 2 3 3 3 3 3 3 2 0 1
0 0 0 -0 -0 -0 -0 -0 -0 0 0 0 -0 0 0 -0 0 -0 -0 0 1 1 3 2 0 -0 -0 -0 -1 -2 -1 -1 -1 1 1 3 3 3 3 4 3 3 1
0 0 0 0 -0 -0 -0 0 0 0 0 1 0 0 1 0 0 -0 0 1 1 0 2 3 1 1 0 -1 -1 -1 -1 -1 -1 1 4 3 3 4 5 5 5 5 2
1 1 1 1 1 0 0 -0 0 0 0 0 0 0 0 0 1 0 0 1 1 1 1 2 2 1 0 -0 0 -1 -1 -1 -1 1 3 3 4 4 4 5 5 6 5
1 1 1 2 1 0 1 0 0 0 0 0 -0 -0 0 0 1 0 1 0 1 1 1 2 2 2 1 0 0 1 1 -0 0 -1 0 2 3 3 4 5 5 5 7
1 0 1 1 1 1 1 1 -0 0 0 0 0 -0 -0 -0 1 1 0 0 1 1 1 2 2 2 2 2 2 1 2 2 0 -0 0 -0 -0 -1 -1 3 3 4 6
1 1 1 1 1 1 5 4 2 0 0 0 1 0 -0 1 1 3 4 3 1 1 1 2 2 2 2 1 2 2 2 2 3 -0 0 1 -0 0 -1 -1 2 4 5
2 2 2 2 1 2 6 6 4 1 1 1 1 1 1 -0 0 -0 2 4 4 5 3 0 2 2 2 1 1 1 1 2 2 1 1 2 -0 1 -1 -1 3 4 5
3 2 2 1 1 1 5 6 5 1 1 1 1 1 1 1 0 1 0 0 0 -0 -0 1 1 0 -0 -0 1 0 1 1 1 1 -0 3 0 1 -0 -1 2 4 5
2 2 2 1 1 1 5 5 3 1 1 1 1 0 1 0 7 7 1 1 1 0 2 4 5 5 5 5 3 1 2 2 3 2 0 1 1 1 0 0 -1 4 6
3 2 3 2 3 0 6 6 4 1 1 1 0 1 6 5 8 9 3 2 2 1 1 1 0 1 3 1 5 1 0 2 2 3 0 2 1 1 3 0 -0 -0 1